Regional Weather Roundup
Issued by NWS

Home | Current Version | Previous Version | Graphics & Text | Print | Product List | Glossary On
Versions: 1 2 3 4 5 6 7 8 9 10 11 12 13 14 15 16 17 18 19 20 21 22 23 24 25 26 27 28 29 30 31 32 33 34 35 36 37 38 39 40 41 42 43 44 45 46 47 48 49 50
000
ASUS43 KDTX 252001
RWRMI
MICHIGAN HOURLY REGIONAL WEATHER ROUNDUP
NATIONAL WEATHER SERVICE DETROIT/PONTIAC MI
300 PM EST THU DEC 25 2014

NOTE: "FAIR" INDICATES FEW OR NO CLOUDS BELOW 12,000 FEET WITH NO
SIGNIFICANT WEATHER AND/OR OBSTRUCTION TO VISIBILITY.

MIZ047>049-052>055-059>063-066>070-074>076-081>083-252100-
SOUTHEAST LOWER MICHIGAN

CITY           SKY/WX    TMP DP  RH WIND       PRES   REMARKS
ADRIAN         CLOUDY    37  30  75 W12G23    30.01R WCI  29
ALMA           CLOUDY    36  32  86 SW10G22   29.94R WCI  28
ANN ARBOR      CLOUDY    37  29  72 W17G24    29.99R WCI  27
BAD AXE        CLOUDY    37  32  84 W10G24    29.92R WCI  29
CARO           CLOUDY    37  31  80 W14G23    29.92R WCI  28
DETROIT CITY   CLOUDY    40  28  62 W15G25    29.99R WCI  32
DETROIT        CLOUDY    38  29  70 SW17G24   30.00R WCI  28
FLINT          CLOUDY    38  29  70 SW13      29.96R WCI  30
GROSSE ILE     CLOUDY    37  30  75 SW12      30.00R WCI  30
HILLSDALE      CLOUDY    36  32  85 SW12G20   29.99R WCI  28
HOWELL         CLOUDY    35  30  83 SW10      29.97R WCI  27

CITY           SKY/WX    TMP DP  RH WIND       PRES   REMARKS
JACKSON        CLOUDY    35  29  78 SW13G22   29.99R WCI  26
LAMBERTVILLE   CLOUDY    37  32  81 SW12      30.03R WCI  30
LANSING        CLOUDY    36  29  75 SW16G24   29.97R WCI  26
LAPEER         CLOUDY    36  30  79 W17G23    29.95R WCI  26
MASON          CLOUDY    34  29  80 SW10G17   29.98R WCI  26
MONROE         CLOUDY    37  30  75 SW12G17   30.01R WCI  30
MT. CLEMENS    CLOUDY    39  33  78 SW9       29.95R WCI  33
PONTIAC        CLOUDY    36  29  75 SW13      29.96R WCI  27
PORT HOPE        N/A     38  29  70 W14G20    29.88R WCI  30
PORT HURON     CLOUDY    37  30  75 W7        29.97R WCI  32
TRI CITIES     CLOUDY    38  30  73 SW16      29.93R WCI  29
TROY           CLOUDY    39  29  67 SW16G25   30.00R WCI  31
SAGINAW HB     CLOUDY    37  32  81 SW13G24   29.93R WCI  29
$$
MIZ043>046-050>051-056>058-064>065-071>073-077>080-252100-
SOUTHWEST LOWER MICHIGAN

CITY           SKY/WX    TMP DP  RH WIND       PRES   REMARKS
BATTLE CREEK   CLOUDY    37  29  72 SW18G25   29.99R WCI  27
BENTON HARBOR  PTSUNNY   38  30  73 SW16G26   29.99R WCI  29
BIG RAPIDS     CLOUDY    35  32  90 SW14G21   29.90R WCI  25
COLDWATER      CLOUDY    35  30  82 MISG      30.00R
FREMONT        CLOUDY    36  29  78 SW16G22   29.92R WCI  26
HOLLAND        CLOUDY    39  30  70 SW18G25   29.97R WCI  30
GRAND RAPIDS   CLOUDY    37  29  72 SW20      29.96R WCI  27
IONIA          CLOUDY    37  31  82 SW15      29.94R WCI  27
KALAMAZOO      CLOUDY    37  29  72 SW15G21   30.00R WCI  28
LUDINGTON      CLOUDY    37  32  81 SW15G23   29.90S WCI  28
MARSHALL       CLOUDY    34  30  83 SW15      29.98R WCI  25
MOUNT PLEASANT CLOUDY    36  31  82 SW12G17   29.91R WCI  28
MUSKEGON       CLOUDY    38  30  73 SW18G25   29.95R WCI  28
SOUTH HAVEN    CLOUDY    38  31  73 SW14G21   29.99R WCI  30
$$
MIZ016>042-252100-
NORTHERN LOWER MICHIGAN

CITY           SKY/WX    TMP DP  RH WIND       PRES   REMARKS
ALPENA         CLOUDY    37  30  75 SW9       29.82R WCI  30
BEAVER ISLAND  CLOUDY    36  32  84 SW17G23   29.79R WCI  26
BELLAIRE       CLOUDY    38  30  75 SW8G23    29.84R WCI  32
CADILLAC       CLOUDY    33  30  89 SW17      29.84R WCI  22
CHARLEVOIX     CLOUDY    37  31  82 SW14G26   29.84R WCI  28
FRANKFORT      CLOUDY    36  32  84 SW12      29.86R WCI  28
GAYLORD        CLOUDY    33  29  85 W16       29.80R WCI  23
GRAYLING       CLOUDY    35  30  85 SW12G17   29.83R WCI  26
HARBOR SPRINGS CLOUDY    37  32  83 SW18G28   29.80R WCI  26
HOUGHTON LAKE  CLOUDY    34  29  82 W14G25    29.85R WCI  25
MANISTEE       CLOUDY    37  27  65 SW12G17   29.88S WCI  30
OSCODA         CLOUDY    37  31  78 W17G25    29.85R WCI  28
PELLSTON       CLOUDY    37  30  75 W16G23    29.79R WCI  28
ROGERS CITY    CLOUDY    37  32  84 SW8       29.81R WCI  30
TRAVERSE CITY  CLOUDY    38  30  73 SW12G20   29.84R WCI  30
$$
MIZ007>008-015-252100-
EASTERN UPPER MICHIGAN

CITY           SKY/WX    TMP DP  RH WIND       PRES   REMARKS
KINROSS        CLOUDY    36  32  87 W15       29.74R WCI  26
MACKINAC ISLAN CLOUDY    36  33  90 W15G24    29.77R WCI  26
NEWBERRY       CLOUDY    34  31  87 SW13      29.74R WCI  25
S. S. MARIE    CLOUDY    36  29  75 W10G18    29.73R WCI  28
$$
MIZ004>006-011>014-085-252100-
CENTRAL UPPER MICHIGAN

CITY           SKY/WX    TMP DP  RH WIND       PRES   REMARKS
MANISTIQUE     CLOUDY    35  32  88 MISG      29.77R
ESCANABA       CLOUDY    36  28  75 SW12      29.77R WCI  27
MENOMINEE      CLOUDY    36  27  69 W10G20    29.80R WCI  28
SAWYER-GWINN   CLOUDY    34  30  86 SW12      29.73R WCI  25
$$
MIZ001>003-009>011-084-252100-
WESTERN UPPER MICHIGAN

CITY           SKY/WX    TMP DP  RH WIND       PRES   REMARKS
IRON MOUNTAIN  CLOUDY    34  29  82 SW9       29.75R WCI  27
HOUGHTON       CLOUDY    33  30  88 W14       29.69R FOG     WCI  23
COPPER HARBOR    N/A     36  31  82 W9        29.69R WCI  29
IRONWOOD       CLOUDY    32  28  86 W10       29.70R WCI  24
$$

ABBREVIATIONS USED IN REMARKS
   TC - TEMPERATURE IN CELSIUS
  WCI - WIND CHILL INDEX
   HX - HEAT INDEX
  VSB - VISIBILITY




USA.gov is the U.S. government's official web portal to all federal, state and local government web resources and services.